Погода Кочубей

Поиск расширенной информации на нашем сайте:

Полезная информация:

Новости сайта



02.01.2020
Опубликован Долгосрочный прогноз погоды по городам России и ближнего зарубежья на январь 2020 года.
Карты: Прогноз на январь и февраль 2020 года, Сравнение прогнозируемой аномалии приземной температуры воздуха на январь 2020 года по разным моделям.




Погода Кочубей - сегодня

Время (UTC), дата Ветер
(°,м/с) 
Видим.   Явления Облачность Т
(°С)
Тd
(°С)
f(%) Тe
(°С)
Pmin
(гПа)
dP
(гПа)
Po
(мм)
O2
(г/м3)
Тmin Tmax R s Состояние
почвы
15 18.10.20 100 (В) 5{11}  20000 м    4/3 600 м средняя, верхняя 
[Sc|Ac trans|Ci fib]
+23.6 +17.2 67 +36  1010.7  0.2  760  278    +27.1       
18 18.10.20 090 (В) 4000 м    9/9 600 м 
[Sc]
+18.1 +14.5 79 +26  1015.7  764  286           
21 18.10.20 310 (СЗ) 4000 м    9/9 600 м 
[Sc]
+16.6 +14.1 85 +25  1015.2  -0.5  763  287           
00 19.10.20 300 (СЗ) 4000 м    9/9 600 м 
[Sc]
+16.4 +13.3 82 +23  1015.2  763  288           
03 19.10.20 270 (З) 4000 м    10/10 600 м 
[Sc]
+13.2 +10.9 86 +15  1016.1  764  292  +13.1        сухая 
06 19.10.20 260 (З) 20000 м    10/10 600 м 
[Sc]
+15.3 +12.6 84 +20  1017  0.8  765  289           
09 19.10.20 310 (СЗ) 20000 м    ясно 
+20.4 +12.2 59 +24  1015.3  -2.3  763  284           
12 19.10.20 360 (С) 20000 м    6/0 верхняя 
[Ci fib]
+22.1 +10.8 49 +24  1013.9  -1.4  762  282    +3.3       
15 19.10.20 140 (ЮВ) 4000 м    4/0 верхняя 
[Ci fib]
+18 +11.4 65 +22  1014.5  0.6  763  286    +22.4       
18 19.10.20 150 (ЮВ) 4000 м    ясно 
+15.2 +10.9 75 +18  1014.2  -0.3  763  289           
21 19.10.20 280 (З) 4000 м    9/9 600 м 
[Sc]
+12.9 +10.2 84 +14  1016.1  1.9  764  292           
00 20.10.20 270 (З) 4000 м    10/10 600 м 
[Sc]
+15.5 +11.2 76 +17  1018  1.9  765  290           
03 20.10.20 280 (З) 4000 м    10/10 600 м 
[Sc]
+14.3 +10.5 78 +15  1021.1  3.1  768  292  +12.7        сухая 
06 20.10.20 310 (СЗ) 8-11  20000 м    10/10 600 м 
[Sc]
+12.6 +7.7 72 +11  1024.5  3.4  770  295  +12.3        замёрзшая 
09 20.10.20 300 (СЗ) 5{11}  20000 м    6/6 600 м 
[Cu med, cong]
+15.4 +6.1 54 +15  1024.7  0.1  770  293           
12 20.10.20 310 (СЗ) 20000 м    8/0 верхняя 
[Ci fib]
+16.8 +4.1 43 +17  1024.1  -0.6  770  292           
15 20.10.20 290 (З) 4000 м    8/8 600 м 
[Sc]
+14.1 +3.7 49 +15  1024.8  0.7  771  295    +17.4       
18 20.10.20 тихо ()   4000 м    ясно 
+9.5 +4 68 +10  1024.9  0.1  771  300           
21 20.10.20 230 (ЮЗ) 4000 м    8/8 600 м 
[Sc]
+10.6 +3.9 63 +10  1025.3  0.4  771  298           
00 21.10.20 260 (З) 4000 м    10/10 600 м 
[Sc]
+10.2 +4.5 68 +10  1025.7  0.4  771  299           
03 21.10.20 320 (СЗ) 4000 м    10/10 600 м 
[Sc]
+11.4 +4.9 64 +11  1027.2  1.5  772  298  +9.4        сухая 
06 21.10.20 290 (З) 20000 м    ясно 
+12.9 +2.9 51 +12  1029.4  2.1  774  297           
09 21.10.20 300 (СЗ) 20000 м    3/0 верхняя 
[Ci fib]
+15.9 -1.8 30 +16  1028.7  -0.7  774  295           
12 21.10.20 300 (СЗ) 20000 м    3/0 верхняя 
[Ci fib]
+16.3 -2.4 28 +16  1028.1  -0.7  773  294           
15 21.10.20 340 (С) 4000 м    3/0 верхняя 
[Ci fib]
+10.5 -2.7 39 +11  1028.2  0.3  773  300    +16.9       
Время (UTC), дата Ветер
(°,м/с) 
Видим.   Явления Облачность Т
(°С)
Тd
(°С)
f(%) Тe
(°С)
Pmin
(гПа)
dP
(гПа)
Po
(мм)
O2
(г/м3)
Тmin Tmax R s Состояние
почвы

Для получения пояснительной информации подведите курсор к названию столбца.

ПОГОДА Кочубей - архив

Всё, что Вы хотите узнать о погоде Кочубей - удобно и подробно!

Выберите нужную дату (начиная с 1 января 2019* года) и нажмите кнопку "Найти".
Будут отображены архивные сводки погоды по пункту Кочубей, начиная с указанной даты.


Отображать данные в формате CSV (для использования в таблицах Excel)


Внимание! Наш архив погоды предназначен исключительно для личного некоммерческого использования в познавательных целях. Если Вам необходимы официальные справки о состоянии погоды (для производственных, юридических, коммерческих и т.п. целей), обращайтесь в органы Росгидромета.

*Примечание: данная дата относится к архиву по метеостанциям СССР (Россия, СНГ, Балтия).
Архив по метеостанциям Зарубежной Европы и Азии (кроме Китая) хранится 10 дней, по другим регионам земного шара (Китай, Африка, Америка, Австралия, Океания) - 1 день.

Кочубей - район местоположения метеостанции


Название, широта, долгота, высота метеостанции:
Кочубей 44.4°ш. 46.6°д. -21 м над ур. моря [Российская Федерация]

Дополнительная информация

В oтличие oт бoльшинства пoгoдных сайтoв мы публикуем пoдрoбную метеoинфoрмацию в детальнoм прoфессиoнальнoм фoрмате.

Характеристики температуры и влажнoсти вoздуха измеряются на высoте 2 м в тени вдали oт зданий и деревьев.
Скoрoсть ветра измеряется на высoте 10 м (на урoвне рoста челoвека скoрoсть ветра ниже в 1.5-2 раза). Если метеoстанция нахoдится в гoрoде или в лесу, тo скoрoсть ветра занижена на 2-4 м/с пo сравнению с oткрытым местoм. Скoрoсть ветра над акватoриями крупных рек и oзёр, а также на вершинах хoлмoв на 2-5 м/с выше, чем в oбычных услoвиях.
Атмoсфернoе давление в разных тoчках местнoсти мoжет значительнo oтличаться oт давления на метеoстанции, в зависимoсти oт услoвий рельефа (при пoдъёме на 10 м давление пoнижается примернo на 1 мм рт.ст.).